FALCON 9 DEB (52886 NORAD) Tracking and Keplerian Element Data

This shows tracking and keplerian element data for the satellite.

Feedback or suggestion? Click here.




ElementValue
Catalog52886
NameFALCON 9 DEB
Epoch Orbit246
Epoch Day183.91007867
Epoch Year2022
RAAN326.3939
Inclination53.2159
Eccentricity0.0032474
Argument of Perigee83.0484
Mean Anonmoly277.4248
Mean Motion16.19962882
Decay Rate0.01628455
L11 52886U 22062BJ 22183.91007867 .01628455 11831-4 73356-3 0 9991
L22 52886 53.2159 326.3939 0032474 83.0484 277.4248 16.19962882 2466

Live tracking and technical data element details for FALCON 9 DEB (NORAD 52886). FALCON 9 DEB can be tracked NOW for your location showing map with azimuth and elevation plus other details from your city location.

Track the satellite on the map from your city or location and see movement details for azimuth, elevation, latitude, longitude, range, height, and movement on the map or in text.







IsCatalogInMostPopularTable: catalog: 52886, numindb: 4
Update: records affected: 1



GetName: 52886 FALCON 9 DEB

Hit Count: updated at: Thu, 06 Oct 2022 03:58:05 GMT